Location: Archemont
(49.1579°N, 1.7598°E)
Time: 22:26:52
(UTC+00:00)

Altair - Pass Details

Date: 20 April 2024
Orbit: 1501 x 1682 km, 47.2° (Epoch: 19 May)

Event Time Altitude Azimuth Distance (km) Brightness Sun altitude
Rises 17:25:27 0° 203° (SSW) 4,920 10.4 13.2°
Reaches altitude 10° 17:29:05 10° 193° (SSW) 3,926 9.8 12.6°
Maximum altitude 17:37:29 31° 136° (SE) 2,589 8.4 11.3°
Drops below altitude 10° 17:45:41 10° 80° (E) 3,850 9.0 9.9°
Sets 17:49:11 0° 70° (ENE) 4,812 9.5 9.4°
